Regional Weather Roundup
Issued by NWS Sterling, VA

Home | Current Version | Previous Version | Graphics & Text | Print | Product List | Glossary On
Versions: 1 2 3 4 5 6 7 8 9 10 11 12 13 14 15 16 17 18 19 20 21 22 23 24 25 26 27 28 29 30 31 32 33 34 35 36 37 38 39 40 41 42 43 44 45 46 47 48 49 50
000
ASUS41 KLWX 300410
RWRLWX

REGIONAL WEATHER ROUNDUP
NATIONAL WEATHER SERVICE BALTIMORE MD/WASHINGTON DC
1200 AM EDT TUE JUN 30 2015

Note: "FAIR" indicates few or no clouds below 12,000 feet
with no significant weather and/or obstructions to visibility.
 TC=TEMPERATURE CELSIUS

 * =Non NWS site. Station does not report precipitation (e.g. rain,
    snow, etc.), thunder, or fog.

DCZ001-MDZ009-015-VAZ040>042-051-053>054-300500-
WASHINGTON METRO

CITY           SKY/WX    TMP DP  RH WIND       PRES   REMARKS
WASHINGTON NAT CLEAR     73  62  68 S5        29.95S
DULLES         PTCLDY    69  58  67 SE3       29.94S
ANDREWS AFB    CLEAR     68  63  84 S6        29.94S
FT BELVOIR     CLEAR     65  63  91 CALM      29.94S
QUANTICO       CLEAR     75  63  66 S7        29.95R
COLLEGE PARK*  CLEAR     68  63  83 CALM      29.95R
LEESBURG*      CLEAR     70  61  73 S6        29.95S
MANASSAS*      CLEAR     66  63  88 CALM      29.94S
GAITHERSBURG*  CLEAR     64  55  72 SE3       29.99R

$$

MDZ006>007-011-014-300500-
BALTIMORE METRO

CITY           SKY/WX    TMP DP  RH WIND       PRES   REMARKS
BWI AIRPORT    PTCLDY    69  61  75 CALM      29.94F
MD SCIENCE CTR   N/A     73  61  65 MISG      29.95R
MARTIN STATE   CLEAR     73  64  73 SE8       29.96S
ANNAPOLIS      CLEAR     74  64  71 SE8       29.94F
FORT MEADE*    CLEAR     63  59  88 CALM      29.97S

$$

MDZ012-015-019>023-300500-
MARYLAND EASTERN SHORE

CITY           SKY/WX    TMP DP  RH WIND       PRES   REMARKS
OCEAN CITY     CLEAR     72  66  81 S3        29.98F
SALISBURY      CLEAR     67  62  84 SE3       29.97F
BAY BRIDGE AP*   N/A     73  61  64 SE6       29.95S
CAMBRIDGE*     CLEAR     68  61  77 SE3       29.96S
EASTON*        CLEAR     70  62  76 S6        30.00S

$$

MDZ017>025-300500-
SOUTHERN MARYLAND

CITY           SKY/WX    TMP DP  RH WIND       PRES   REMARKS
PATUXENT RIVER CLEAR     73  64  73 S8        29.95S
ST INIGOES     CLEAR     76  66  71 SE8       29.94F
LEONARDTOWN*   CLEAR     70  63  78 CALM      29.96F

$$

MDZ003>005-300500-
NORTH CENTRAL MARYLAND

CITY           SKY/WX    TMP DP  RH WIND       PRES   REMARKS
FREDERICK*     CLOUDY    70  63  78 CALM      29.96S
HAGERSTOWN APT CLOUDY    73  56  54 S7        29.92F
WESTMINSTER*   MOCLDY    72  55  56 S7        29.96S

$$

MDZ501>502-300500-
WESTERN MARYLAND

CITY           SKY/WX    TMP DP  RH WIND       PRES   REMARKS
OAKLAND*       CLOUDY    61 N/A N/A S9        29.97S
CUMBERLAND*    CLOUDY    72  59  64 S5        29.94F

$$

VAZ025>031-300500-
SHENANDOAH VALLEY

CITY           SKY/WX    TMP DP  RH WIND       PRES   REMARKS
WINCHESTER*    PTCLDY    68  59  73 CALM      29.93S
FRONT ROYAL*   FAIR      70  59  68 SW3       29.92F
LURAY*         FAIR      70  61  73 SW5       29.94F
NEW MARKET*    FAIR      64  60  85 SW3       29.93S
STAUNTON*      CLEAR     66  60  81 CALM      29.97F
WAYNESBORO*    FAIR      64  58  80 CALM      29.98S

$$

WVZ021-048>050-054>055-300500-
EASTERN WEST VIRGINIA PANHANDLE

CITY           SKY/WX    TMP DP  RH WIND       PRES   REMARKS
MARTINSBURG    PTCLDY    67  60  78 CALM      29.93F
PETERSBURG*    LGT RAIN  67  57  69 CALM      29.93F

$$

VAZ036>039-050-300500-
CENTRAL FOOTHILLS

CITY           SKY/WX    TMP DP  RH WIND       PRES   REMARKS
CHARLOTTESVILL CLEAR     66  60  81 CALM      29.95S
CULPEPER*        N/A     65  61  86 CALM      29.95S
ORANGE*        CLEAR     64  63  94 CALM      29.96S
GORDONSVILLE*  FAIR      64  63  94 CALM      29.94F
WARRENTON*     FAIR      67  64  90 CALM      29.94S

$$

VAZ055>057-300500-
NORTH AND CENTRAL PIEDMONT

CITY           SKY/WX    TMP DP  RH WIND       PRES   REMARKS
FREDERICKSBRG* CLEAR     72  64  75 S6        29.94R
STAFFORD*      CLEAR     62  60  95 CALM      29.99R

$$

NCZ024-NYZ072-PAZ021-071-VAZ022-071-300500-
OTHER REGIONAL OBSERVATIONS

CITY           SKY/WX    TMP DP  RH WIND       PRES   REMARKS
NEW YORK CITY  CLEAR     72  55  55 SW3       29.97S
PHILADELPHIA   CLEAR     73  59  61 S7        29.95F
PITTSBURGH     LGT RAIN  63  59  87 SE5       29.87S
ROANOKE        CLOUDY    72  60  66 CALM      29.98F
RICHMOND       PTCLDY    71  65  81 SE7       29.95S
RALEIGH        PTCLDY    74  67  78 S5        29.96F

$$

ANZ530>537-300500-
MARINE OBSERVATIONS

STATION/POSITION TIME  TEMP    WIND        PRES
                       AIR SEA DIR/SP/G
                 (UTC) (F)     (DEG/KT/KT) (MB)
THOMAS PT LIGHT  0300   76     160/ 13/ 15   N/A
BALT KEY BRIDGE  0300   74     150/ 10/ 11 1013.8F
COVE POINT       0300   76     200/ 11/ 14 1015.0F
LEWISETTA        0300   74 81  180/  7/  8 1014.3F
SOLOMONS ISLAND  0300      80                N/A
PINEY POINT      0300          190/ 13/ 16   N/A

$$




USA.gov is the U.S. government's official web portal to all federal, state and local government web resources and services.